Lac la Martre, Northwest Territories

10:47 AM MDT on August 20, 2017 (GMT -0600)
Lac la Martre

Weather History for CWMT - October, 2012

Change the Weather History Date:

Sunday, October 14, 2012

  Actual Average Record
Temperature  
Mean Temperature 24 °F -  
Max Temperature 81 °F - - ()
Min Temperature -34 °F - - ()
Degree Days  
Heating Degree Days 42    
Moisture  
Dew Point 27 °F    
Average Humidity 77    
Maximum Humidity 100    
Minimum Humidity 13    
Precipitation  
Precipitation 0.00 in - - ()
Sea Level Pressure  
Sea Level Pressure 29.56 in    
Wind  
Wind Speed 4 mph ()    
Max Wind Speed 13 mph    
Max Gust Speed 20 mph    
T = Trace of Precipitation, MM = Missing Value Source: Averaged Metar Reports

Daily Weather History Graph

Daily Weather History Graph

Search for Another Location

Airport or City:

Trip Planner

Search our weather history database for the weather conditions in past years. The results will help you decide how hot, cold, wet, or windy it might be!

Date:

Astronomy

Oct. 14, 2012 Rise Set
Actual Time 8:35 AM MDT 6:33 PM MDT
Civil Twilight 7:48 AM MDT 7:19 PM MDT
Nautical Twilight 6:55 AM MDT 8:13 PM MDT
Astronomical Twilight 6:00 AM MDT 9:07 PM MDT
Moon 7:37 AM MDT (10/14) 5:49 PM MDT (10/14)
Length of Visible Light 11h 31m
Length of Day
9h 57m
Waning Crescent, 1% of the Moon is Illuminated
Oct 14
Waning Crescent
Oct 15
New
Oct 21
First Quarter
Oct 29
Full
Nov 6
Last Quarter

Hourly Weather History & Observations

Time (MDT) Temp. Windchill Dew Point Humidity Pressure Visibility Wind Dir Wind Speed Gust Speed Precip Events Conditions
12:00 AM 16 °F - -12 °F 13% 29.68 in - SSE 4.6 mph - -  
12:00 AM 15.8 °F 8.6 °F -12.3 °F 28% 29.68 in - SSE 4.6 mph - N/A   Unknown
1:00 AM 29.7 °F - 28.8 °F 96% 29.69 in - ESE 1.2 mph - N/A   Unknown
2:00 AM 72.7 °F - 59.5 °F 63% 29.68 in - South 2.3 mph - N/A   Unknown
3:00 AM 29.3 °F 25.6 °F 28.6 °F 97% 29.68 in - South 3.5 mph - N/A   Unknown
4:00 AM -34.1 °F - -62.9 °F 19% 29.73 in - SSE 2.3 mph - N/A   Unknown
5:00 AM 51.3 °F - 40.5 °F 67% 29.65 in - SSE 2.3 mph - N/A   Unknown
6:00 AM 64 °F - 64 °F 100% 29.63 in - SE 2.3 mph - -  
6:00 AM 64.2 °F - 64.2 °F 100% 29.63 in - SE 2.3 mph - N/A   Unknown
7:00 AM 42.8 °F - - N/A% 29.63 in - SE 2.3 mph - N/A   Unknown
8:00 AM 28.9 °F 25.2 °F 28.4 °F 98% 29.63 in - ESE 3.5 mph - N/A   Unknown
9:00 AM 29.1 °F 25.4 °F 28.6 °F 98% 29.64 in - ESE 3.5 mph - N/A   Unknown
10:00 AM 29.5 °F 25.9 °F 28.8 °F 97% 29.61 in - ESE 3.5 mph - N/A   Unknown
11:00 AM 30.4 °F 25.6 °F 28.9 °F 94% 29.60 in - SE 4.6 mph - N/A   Unknown
12:00 PM 28 °F - 27 °F 95% 29.59 in - SE 4.6 mph - -  
12:00 PM 28.4 °F 23.3 °F 27.1 °F 95% 29.59 in - SE 4.6 mph - N/A   Unknown
1:00 PM 31.6 °F 26.0 °F 29.3 °F 91% 29.55 in - ESE 5.8 mph - N/A   Unknown
2:00 PM 68.7 °F - 52.5 °F 56% 29.52 in - East 8.1 mph - N/A   Unknown
3:00 PM - - - N/A% - - East 10.4 mph - N/A   Unknown
4:00 PM 32.9 °F 25.3 °F 30.9 °F 92% 29.46 in - ESE 9.2 mph - N/A   Unknown
5:00 PM 40.5 °F 34.1 °F 40.5 °F 100% 29.43 in - East 10.4 mph - N/A   Unknown
6:00 PM 34 °F - 24 °F 56% 29.42 in - ESE 10.4 mph - -  
6:00 PM 33.8 °F 25.8 °F 24.1 °F 68% 29.42 in - ESE 10.4 mph - N/A   Unknown
8:00 PM 34.5 °F 25.7 °F 31.3 °F 88% 29.39 in - ESE 12.7 mph 19.6 mph N/A   Unknown
9:00 PM -12.1 °F -33.2 °F -33.5 °F 34% 29.40 in - ESE 12.7 mph - N/A   Unknown
10:00 PM 81.1 °F - 78.1 °F 90% 29.31 in - East 11.5 mph 18.4 mph N/A   Unknown
11:00 PM 34.3 °F 26.5 °F 31.8 °F 90% 29.32 in - East 10.4 mph - N/A   Unknown